STARLINK-5966, 56919

Orbit data source: Space-Track

STARLINK-5966, 56919 is a payload satellite owned by SpaceX/Seattle (US) in LEO that was launched on Mon, 12 Jun 2023 UTC via an FALCON 9 launch vehicle from the Air Force Eastern Test Range (AFETR). Payload-class satellites include a variety of spacecraft equipped with specific instruments for various scientific and technological missions. These include communications satellites like Starlink; space stations such as the ISS; scientific satellites like the Hubble; Earth observation satellites from companies like Planet Labs, Umbra, and HawkEye 360; GPS; miniature CubeSats for education and research; and military/defense satellites.

Loading next visibility...
Identifier
56919, 2023-083AV
Orbit
LEO
Country
Flag of USUS
Related business
Manufacturer
SpaceX/Seattle
Mission
Operational Commercial Communications
Bus & Motor
STARLINK, Unknown motor
Mass
305 kg wet, ~290 kg dry
Launch date (UTC)
2023-06-12 (3 years ago)
Launch vehicle
FALCON 9
Launch site
Air Force Eastern Test Range (AFETR)
Object type
Payload
Rocket body
Debris
Shape & HBR
Box + 1 Pan, 10.1 m
Radar Cross Section
11.087 m², Large (>1 m²)

Expand to show TLE details & history
Last TLE update: 2 days ago

TLE from 2 days ago
0 STARLINK-5966
1 56919U 23083AV  26171.15999271  .00008565  00000-0  32075-3 0  9990
2 56919  42.9991 211.6383 0000843  91.3016 268.7932 15.27542894167474
Epoch: 2026-06-20T03:50Z
TLE epoch observation values (Epoch: 2026-06-20T03:50:23.370Z)
Latitude
-0.00002°
Longitude
-114.3377°
Altitude
482.948 km
Speed
7.626 km/s
True Right ascension
14h 06m 33s
True Declination
0° 00' 00"
Sunlit
Object was in full shadow at epoch
Visualization orbit readout
Latitude
Unknown
Longitude
Unknown
Altitude
Unknown
Speed
Unknown
Apparent Right ascension
Unknown
Apparent Declination
Unknown
Sunlit
N/A
Visualization observer readout
Local Sidereal Time
21:33:01
Azimuth
Unknown
Elevation
Unknown
Doppler factor
Unknown
Orbital elements
Apogee altitude
485.684 km
Perigee altitude
484.527 km
Semi-major axis
6,863.242 km
Eccentricity
0.00008
Inclination
42.9991°
RAAN
211.6383°
Arg. of periapsis
91.3016°
True anomaly
268.78354°
Mean anomaly
268.7932°
Eccentric anomaly
268.78837°
Mean motion
3.81724 °/min
Orbital period
94.31 mins
BSTAR
0.00032075
Loading maneuver chart data...
Computing Atmospheric mass density...
Loading historical data...
Loading historical data...
Loading historical data...
Loading historical data...
Loading historical data...
Loading historical data...
Loading historical data...

Documentation

Showing up to 5 results
|